EW0600 Weather Reports


Display with metric or nautical units.
time (UTC)temp
F
wind
direction
speed
MPH
gust
MPH
rain 1hr
in
rain 24hr
in
rain mn
in
humidity
%
barometer
mb
20221207105027 19 58 1.0 6.0 0.00 0.00 0.00 80 1022.8
20221207104502 19 354 1.0 7.0 0.00 0.00 0.00 80 1022.7
20221207104050 19 48 2.0 6.0 0.00 0.00 0.00 80 1022.4
20221207103108 19 68 2.0 5.0 0.00 0.00 0.00 80 1022.2
20221207103104 19 68 3.0 6.0 0.00 0.00 0.00 80 1022.2
20221207102042 19 63 2.0 5.0 0.00 0.00 0.00 80 1022.3
20221207101039 19 32 0.0 5.0 0.00 0.00 0.00 81 1022.2
20221207100050 19 345 1.0 4.0 0.00 0.00 0.00 82 1022.1
20221207100002 19 8 1.0 5.0 0.00 0.00 0.00 82 1022.1
20221207095045 20 30 0.0 6.0 0.00 0.00 0.00 82 1022.0
20221207094603 19 342 0.0 5.0 0.00 0.00 0.00 82 1022.0
20221207094025 20 338 2.0 6.0 0.00 0.00 0.00 82 1021.9
20221207093009 19 68 2.0 5.0 0.00 0.00 0.00 83 1021.7
20221207093002 19 68 3.0 5.0 0.00 0.00 0.00 83 1021.7
20221207092005 19 56 2.0 5.0 0.00 0.00 0.00 85 1021.6
20221207091603 19 56 2.0 4.0 0.00 0.00 0.00 86 1021.6
20221207090954 19 41 1.0 3.0 0.00 0.00 0.00 87 1021.6
20221207085954 19 58 1.0 3.0 0.00 0.00 0.00 89 1021.6
20221207085015 18 66 1.0 3.0 0.00 0.00 0.00 91 1021.2
20221207084536 18 49 1.0 4.0 0.00 0.00 0.00 92 1021.4
20221207084013 18 38 0.0 2.0 0.00 0.00 0.00 92 1021.1
20221207083101 16 6 0.0 3.0 0.00 0.00 0.00 92 1021.1
20221207083026 17 15 0.0 2.0 0.00 0.00 0.00 92 1021.1
20221207082045 16 343 0.0 2.0 0.00 0.00 0.00 90 1021.1
20221207081503 16 340 0.0 3.0 0.00 0.00 0.00 92 1021.1
20221207080107 15 330 1.0 2.0 0.00 0.00 0.00 91 1020.9
20221207074744 15 349 0.0 1.0 0.00 0.00 0.00 91 1020.6
20221207074505 15 347 1.0 2.0 0.00 0.00 0.00 92 1020.7
20221207073102 13 307 0.0 2.0 0.00 0.00 0.00 91 1020.6
20221207072527 13 307 0.0 1.0 0.00 0.00 0.00 90 1020.3
20221207071504 13 333 0.0 1.0 0.00 0.00 0.00 91 1020.0
20221207071451 13 333 0.0 0.0 0.00 0.00 0.00 91 1020.0
20221207070456 14 343 0.0 0.0 0.00 0.00 0.00 90 1019.6
20221207070103 14 343 0.0 0.0 0.00 0.00 0.00 90 1019.5
20221207065448 14 343 0.0 0.0 0.00 0.00 0.00 90 1019.4
20221207064502 14 343 0.0 1.0 0.00 0.00 0.00 91 1019.6
20221207064427 14 343 0.0 0.0 0.00 0.00 0.00 91 1019.5
20221207063431 14 343 0.0 0.0 0.00 0.00 0.00 91 1019.4
20221207063102 13 330 0.0 0.0 0.00 0.00 0.00 90 1019.4
20221207062403 14 330 0.0 0.0 0.00 0.00 0.00 90 1019.4
20221207061502 14 330 0.0 1.0 0.00 0.00 0.00 91 1019.4
20221207061353 14 330 0.0 0.0 0.00 0.00 0.00 91 1019.4
20221207060320 13 330 0.0 0.0 0.00 0.00 0.00 90 1019.4
20221207060103 13 330 0.0 2.0 0.00 0.00 0.00 89 1019.5
20221207055243 14 330 0.0 1.0 0.00 0.00 0.00 90 1019.2
20221207054504 14 110 0.0 0.0 0.00 0.00 0.00 92 1019.2
20221207054306 15 110 0.0 0.0 0.00 0.00 0.00 92 1019.1
20221207053110 13 110 0.0 1.0 0.00 0.00 0.00 91 1019.3
20221207052123 14 110 0.0 0.0 0.00 0.00 0.00 91 1019.3
20221207051502 14 110 0.0 0.0 0.00 0.00 0.00 91 1019.2
20221207051116 15 110 0.0 0.0 0.00 0.00 0.00 92 1019.2
20221207050138 14 110 0.0 0.0 0.00 0.00 0.00 91 1019.2
20221207050103 14 110 0.0 1.0 0.00 0.00 0.00 91 1019.3
20221207045128 14 110 0.0 0.0 0.00 0.00 0.00 91 1019.4
20221207044503 14 110 0.0 1.0 0.00 0.00 0.00 92 1019.4
20221207044103 14 110 0.0 0.0 0.00 0.00 0.00 92 1019.3
20221207043117 13 110 0.0 0.0 0.00 0.00 0.00 90 1019.2
20221207043104 13 110 1.0 1.0 0.00 0.00 0.00 90 1019.3
20221207041503 14 110 0.0 0.0 0.00 0.00 0.00 91 1019.0
20221207041138 15 110 0.0 0.0 0.00 0.00 0.00 91 1018.9
20221207040126 15 110 0.0 0.0 0.00 0.00 0.00 91 1018.8
20221207040103 14 110 0.0 0.0 0.00 0.00 0.00 91 1018.8
20221207035112 15 110 0.0 0.0 0.00 0.00 0.00 91 1018.6
20221207034503 15 110 0.0 1.0 0.00 0.00 0.00 92 1018.6
20221207034038 16 110 0.0 0.0 0.00 0.00 0.00 93 1018.5
20221207033102 14 110 0.0 1.0 0.00 0.00 0.00 91 1018.5
20221207033053 15 110 0.0 0.0 0.00 0.00 0.00 91 1018.4
20221207032028 15 110 0.0 0.0 0.00 0.00 0.00 90 1018.5
20221207031503 15 110 0.0 0.0 0.00 0.00 0.00 91 1018.5
20221207031029 15 110 0.0 0.0 0.00 0.00 0.00 91 1018.3
20221207030105 15 110 0.0 1.0 0.00 0.00 0.00 90 1018.3
20221207030032 16 110 0.0 0.0 0.00 0.00 0.00 90 1018.2
20221207025038 17 110 0.0 0.0 0.00 0.00 0.00 90 1018.1
20221207024504 17 144 0.0 1.0 0.00 0.00 0.00 90 1018.3
20221207024021 18 217 0.0 0.0 0.00 0.00 0.00 91 1018.2
20221207023108 17 217 0.0 1.0 0.00 0.00 0.00 91 1018.0
20221207022949 18 217 0.0 0.0 0.00 0.00 0.00 91 1017.9
20221207021946 18 281 0.0 0.0 0.00 0.00 0.00 90 1017.8
20221207021503 17 281 0.0 2.0 0.00 0.00 0.00 91 1017.8
20221207020922 18 280 0.0 1.0 0.00 0.00 0.00 90 1017.8
20221207020102 17 210 0.0 0.0 0.00 0.00 0.00 90 1017.7
20221207015936 17 210 0.0 0.0 0.00 0.00 0.00 89 1017.7
20221207014918 18 210 0.0 0.0 0.00 0.00 0.00 89 1017.5
20221207014503 18 205 0.0 0.0 0.00 0.00 0.00 89 1017.4
20221207013912 18 165 0.0 0.0 0.00 0.00 0.00 88 1017.4
20221207013107 18 165 0.0 0.0 0.00 0.00 0.00 86 1017.1
20221207012857 19 163 0.0 0.0 0.00 0.00 0.00 86 1017.0
20221207011503 20 170 0.0 0.0 0.00 0.00 0.00 85 1016.8
20221207010717 21 234 0.0 0.0 0.00 0.00 0.00 86 1016.8
20221207010102 20 234 0.0 0.0 0.00 0.00 0.00 85 1016.8
20221207005648 21 234 0.0 0.0 0.00 0.00 0.00 85 1016.7
20221207004706 22 235 0.0 0.0 0.00 0.00 0.00 85 1016.6
20221207004502 21 235 0.0 1.0 0.00 0.00 0.00 85 1016.6
20221207003705 21 236 0.0 0.0 0.00 0.00 0.00 85 1016.6
20221207003102 21 236 0.0 1.0 0.00 0.00 0.00 83 1016.7
20221207002643 22 258 0.0 0.0 0.00 0.00 0.00 82 1016.5
20221207001643 23 253 0.0 2.0 0.00 0.00 0.00 82 1016.3
20221207001602 23 260 0.0 2.0 0.00 0.00 0.00 82 1016.4
20221207000637 24 285 1.0 3.0 0.00 0.00 0.00 81 1016.6
20221207000003 23 282 3.0 4.0 0.00 0.00 0.00 81 1016.7
20221206235648 24 279 2.0 3.0 0.00 0.00 0.00 81 1016.6
20221206234634 24 276 2.0 2.0 0.00 0.00 0.00 82 1016.3
20221206234604 24 268 1.0 3.0 0.00 0.00 0.00 82 1016.4
20221206233620 23 270 0.0 1.0 0.00 0.00 0.00 81 1016.2
20221206233003 23 246 0.0 2.0 0.00 0.00 0.00 80 1016.0
20221206231603 24 239 0.0 1.0 0.00 0.00 0.00 79 1016.1
20221206231524 24 239 0.0 0.0 0.00 0.00 0.00 79 1016.1
20221206230509 25 242 0.0 1.0 0.00 0.00 0.00 79 1016.0
20221206230003 25 242 0.0 2.0 0.00 0.00 0.00 78 1016.0
20221206225517 26 244 0.0 1.0 0.00 0.00 0.00 77 1015.9
20221206224603 26 251 1.0 2.0 0.00 0.00 0.00 76 1016.0
20221206224506 27 243 0.0 3.0 0.00 0.00 0.00 76 1015.9
20221206223003 28 234 4.0 5.0 0.00 0.00 0.00 75 1015.7
20221206222416 28 238 2.0 5.0 0.00 0.00 0.00 74 1015.5
20221206221604 28 255 3.0 6.0 0.00 0.00 0.00 73 1015.5
20221206221347 29 253 3.0 5.0 0.00 0.00 0.00 73 1015.5
20221206220331 29 242 2.0 5.0 0.00 0.00 0.00 72 1015.5
20221206220003 29 250 2.0 5.0 0.00 0.00 0.00 72 1015.5
20221206215322 29 254 3.0 5.0 0.00 0.00 0.00 72 1015.3
20221206214604 29 264 4.0 6.0 0.00 0.00 0.00 71 1015.3
20221206214250 30 258 3.0 4.0 0.00 0.00 0.00 71 1015.2
20221206213246 30 240 4.0 7.0 0.00 0.00 0.00 71 1014.8
20221206213001 29 228 3.0 8.0 0.00 0.00 0.00 71 1014.9
20221206212228 30 238 4.0 7.0 0.00 0.00 0.00 70 1014.8
20221206211611 30 243 4.0 6.0 0.00 0.00 0.00 70 1014.8
20221206211218 30 238 2.0 5.0 0.00 0.00 0.00 69 1014.8
20221206210238 30 228 2.0 5.0 0.00 0.00 0.00 69 1014.8
20221206210002 30 235 2.0 6.0 0.00 0.00 0.00 69 1014.7
20221206204632 30 217 4.0 6.0 0.00 0.00 0.00 68 1014.6
20221206204111 31 194 2.0 5.0 0.00 0.00 0.00 67 1014.5
20221206203045 30 149 3.0 7.0 0.00 0.00 0.00 68 1014.6
20221206203002 30 167 3.0 8.0 0.00 0.00 0.00 68 1014.7
20221206202054 30 200 4.0 8.0 0.00 0.00 0.00 67 1014.4
20221206201606 30 174 6.0 9.0 0.00 0.00 0.00 67 1014.3
20221206201028 30 200 5.0 8.0 0.00 0.00 0.00 68 1014.2
20221206200051 30 181 3.0 8.0 0.00 0.00 0.00 68 1014.2
20221206200002 30 144 1.0 9.0 0.00 0.00 0.00 68 1014.2
20221206195045 30 136 3.0 7.0 0.00 0.00 0.00 67 1013.9
20221206194605 30 139 4.0 8.0 0.00 0.00 0.00 68 1014.2
20221206194104 30 223 3.0 10.0 0.00 0.00 0.00 68 1014.1
20221206193002 29 146 6.0 11.0 0.00 0.00 0.00 68 1013.9
20221206191934 29 148 5.0 10.0 0.00 0.00 0.00 69 1013.8
20221206191611 28 146 6.0 11.0 0.00 0.00 0.00 69 1013.9
20221206190924 28 115 4.0 7.0 0.00 0.00 0.00 69 1014.0
20221206190002 28 135 3.0 8.0 0.00 0.00 0.00 68 1014.5
20221206185853 28 126 4.0 7.0 0.00 0.00 0.00 68 1014.5
20221206184914 28 218 3.0 8.0 0.00 0.00 0.00 68 1014.6
20221206184603 28 148 4.0 8.0 0.00 0.00 0.00 68 1014.7
20221206183932 28 231 3.0 8.0 0.00 0.00 0.00 69 1014.7
20221206183002 26 93 4.0 8.0 0.00 0.00 0.00 70 1014.5
20221206182955 27 215 2.0 10.0 0.00 0.00 0.00 70 1014.5
20221206181944 25 116 3.0 10.0 0.00 0.00 0.00 71 1014.8
20221206181603 25 102 3.0 11.0 0.00 0.00 0.00 71 1014.7
20221206180003 23 110 4.0 7.0 0.00 0.00 0.00 71 1015.0
20221206175859 24 100 2.0 6.0 0.00 0.00 0.00 71 1014.9
20221206174920 24 105 0.0 4.0 0.00 0.00 0.00 72 1015.5
20221206174602 22 139 1.0 5.0 0.00 0.00 0.00 72 1015.5
20221206173925 22 155 2.0 6.0 0.00 0.00 0.00 73 1015.6
20221206173011 21 89 3.0 7.0 0.00 0.00 0.00 73 1015.7
20221206172906 22 103 3.0 7.0 0.00 0.00 0.00 72 1015.6
20221206171929 22 149 3.0 8.0 0.00 0.00 0.00 71 1016.2
20221206171613 21 136 3.0 9.0 0.00 0.00 0.00 71 1016.3
20221206170905 22 203 3.0 8.0 0.00 0.00 0.00 72 1016.3
20221206170004 21 127 1.0 4.0 0.00 0.00 0.00 75 1016.3
20221206164707 19 105 2.0 6.0 0.00 0.00 0.00 77 1016.4
20221206164618 19 107 2.0 6.0 0.00 0.00 0.00 77 1016.5
20221206163656 19 75 3.0 8.0 0.00 0.00 0.00 77 1016.3
20221206163003 18 89 4.0 9.0 0.00 0.00 0.00 78 1016.4
20221206162649 18 101 5.0 10.0 0.00 0.00 0.00 78 1016.3
20221206161624 17 124 7.0 10.0 0.00 0.00 0.00 78 1016.3
20221206161607 17 102 7.0 11.0 0.00 0.00 0.00 78 1016.4
20221206160612 17 108 4.0 9.0 0.00 0.00 0.00 79 1016.5
20221206160002 16 128 3.0 8.0 0.00 0.00 0.00 81 1016.5
20221206155612 16 89 3.0 6.0 0.00 0.00 0.00 80 1016.4
20221206154603 15 97 1.0 4.0 0.00 0.00 0.00 82 1016.5
20221206154558 15 100 0.0 3.0 0.00 0.00 0.00 82 1016.5
20221206153525 14 78 0.0 1.0 0.00 0.00 0.00 82 1016.5
20221206153003 13 95 0.0 1.0 0.00 0.00 0.00 83 1016.6
20221206151610 12 85 0.0 2.0 0.00 0.00 0.00 84 1016.5
20221206151340 12 85 0.0 0.0 0.00 0.00 0.00 84 1016.4
20221206150002 10 77 1.0 2.0 0.00 0.00 0.00 85 1016.5
20221206145158 10 81 0.0 0.0 0.00 0.00 0.00 86 1016.5
20221206144602 9 81 0.0 2.0 0.00 0.00 0.00 86 1016.6
20221206144213 9 81 0.0 0.0 0.00 0.00 0.00 86 1016.5
20221206143207 9 81 1.0 3.0 0.00 0.00 0.00 87 1016.3
20221206143003 8 84 2.0 4.0 0.00 0.00 0.00 87 1016.3
20221206142200 8 89 1.0 3.0 0.00 0.00 0.00 86 1016.4
20221206141605 8 105 1.0 4.0 0.00 0.00 0.00 87 1016.7
20221206141126 8 72 2.0 3.0 0.00 0.00 0.00 87 1016.5
20221206140146 7 74 1.0 3.0 0.00 0.00 0.00 86 1016.4
20221206140005 7 73 2.0 3.0 0.00 0.00 0.00 86 1016.5
20221206135134 8 71 0.0 1.0 0.00 0.00 0.00 88 1016.3
20221206134607 7 78 0.0 2.0 0.00 0.00 0.00 87 1016.5
20221206134136 7 78 1.0 2.0 0.00 0.00 0.00 86 1016.4
20221206133157 8 105 1.0 2.0 0.00 0.00 0.00 88 1016.5
20221206133102 7 107 2.0 3.0 0.00 0.00 0.00 88 1016.6
20221206131503 7 96 1.0 3.0 0.00 0.00 0.00 87 1016.7
20221206131100 7 96 1.0 2.0 0.00 0.00 0.00 88 1016.8
20221206130103 6 75 1.0 3.0 0.00 0.00 0.00 88 1016.8
20221206124928 7 117 0.0 0.0 0.00 0.00 0.00 87 1016.9
20221206124502 7 117 0.0 1.0 0.00 0.00 0.00 87 1016.8
20221206123906 8 117 0.0 0.0 0.00 0.00 0.00 87 1016.8
20221206123137 8 117 0.0 1.0 0.00 0.00 0.00 88 1016.9
20221206121730 7 172 0.0 2.0 0.00 0.00 0.00 87 1016.9
20221206121503 7 186 0.0 2.0 0.00 0.00 0.00 86 1017.0
20221206120103 7 102 2.0 3.0 0.00 0.00 0.00 87 1016.6
20221206115543 7 105 1.0 1.0 0.00 0.00 0.00 87 1016.5
20221206114557 7 107 1.0 1.0 0.00 0.00 0.00 88 1016.7
20221206113529 8 17 0.0 0.0 0.00 0.00 0.00 88 1016.7
20221206113004 8 16 0.0 1.0 0.00 0.00 0.00 88 1016.8
20221206112529 8 1 0.0 0.0 0.00 0.00 0.00 88 1016.9
20221206111606 7 359 3.0 4.0 0.00 0.00 0.00 87 1017.0
20221206111534 7 342 2.0 3.0 0.00 0.00 0.00 87 1016.9
20221206110503 8 333 1.0 2.0 0.00 0.00 0.00 87 1016.8
20221206110002 7 335 0.0 2.0 0.00 0.00 0.00 88 1016.8